カタログに戻る

COSMOS 2214

運用中軍事PO
NORAD 22185·PAYLOAD·🇷🇺 Russia

打ち上げ Oct 20, 1992 から Plesetsk Cosmodrome

Loading…

次のパス (今後24時間)

TLE

最新Source: Space-Track

元期: Sep 14, 2026, 22:18 UTC

1 22185U 92068D   26257.92961876  .00000023  00000-0  69353-4 0  9998
2 22185  82.5898 296.6982 0007724 314.6384 160.0602 12.61606028560964

AllMySatでCOSMOS 2214をリアルタイム追跡

Download on the App Store